N8FIS Weather Reports


Display with metric or nautical units.
time (UTC)temp
F
wind
direction
speed
MPH
gust
MPH
rain 1hr
in
rain 24hr
in
rain mn
in
humidity
%
barometer
mb
20260506001559 49 288 0.0 0.0 0.04 0.55 0.55 94 1007.4
20260506001045 49 288 0.0 0.0 0.04 0.55 0.55 94 1007.4
20260506000547 49 288 0.0 0.0 0.04 0.54 0.54 94 1007.5
20260506000119 49 288 0.0 0.0 0.04 0.54 0.54 94 1007.5
20260505235543 49 288 0.0 0.0 0.03 0.53 0.53 94 1007.4
20260505235050 49 288 0.0 0.0 0.03 0.53 0.53 94 1007.4
20260505234555 49 288 0.0 2.0 0.03 0.53 0.53 94 1007.3
20260505234100 49 288 0.0 2.0 0.03 0.53 0.53 94 1007.2
20260505233544 50 288 0.0 1.0 0.03 0.52 0.52 94 1007.1
20260505233050 50 288 0.0 2.0 0.03 0.52 0.52 94 1007.2
20260505232556 50 288 0.0 2.0 0.03 0.52 0.52 94 1007.1
20260505232103 50 288 0.0 2.0 0.04 0.52 0.52 94 1007.1
20260505231547 50 288 0.0 3.0 0.03 0.51 0.51 94 1007.1
20260505231053 49 288 0.0 3.0 0.04 0.51 0.51 94 1007.0
20260505230543 49 288 0.0 2.0 0.04 0.50 0.50 94 1007.1
20260505230048 50 288 0.0 4.0 0.05 0.50 0.50 94 1007.0
20260505225552 50 288 1.0 4.0 0.06 0.50 0.50 94 1007.1
20260505225058 50 288 0.0 2.0 0.09 0.50 0.50 94 1007.1
20260505224545 50 288 1.0 2.0 0.10 0.50 0.50 94 1007.1
20260505224051 50 288 0.0 2.0 0.11 0.50 0.50 94 1007.0
20260505223622 50 288 0.0 0.0 0.12 0.50 0.50 94 1006.8
20260505223108 51 288 0.0 0.0 0.13 0.49 0.49 94 1006.9
20260505222552 51 288 0.0 0.0 0.15 0.49 0.49 94 1007.2
20260505222058 51 288 0.0 0.0 0.15 0.48 0.48 94 1007.2
20260505221546 51 288 0.0 0.0 0.17 0.48 0.48 94 1007.2
20260505221053 50 288 0.0 1.0 0.18 0.47 0.47 94 1007.2
20260505220559 51 288 0.0 1.0 0.19 0.46 0.46 94 1007.3
20260505220111 51 288 0.0 2.0 0.18 0.45 0.45 94 1007.2
20260505215556 51 288 0.0 2.0 0.18 0.44 0.44 93 1007.1
20260505215043 51 288 0.0 2.0 0.16 0.41 0.41 94 1007.2
20260505214547 51 288 0.0 2.0 0.15 0.40 0.40 93 1007.0
20260505214049 51 288 0.0 4.0 0.15 0.39 0.39 93 1006.9
20260505213556 51 288 1.0 4.0 0.15 0.38 0.38 93 1006.8
20260505213042 51 330 0.0 2.0 0.13 0.36 0.36 93 1006.7
20260505212546 51 330 1.0 2.0 0.13 0.35 0.35 93 1006.7
20260505212056 52 330 0.0 0.0 0.12 0.33 0.33 93 1006.7
20260505211544 51 330 0.0 1.0 0.10 0.31 0.31 93 1006.8
20260505211049 51 330 0.0 2.0 0.08 0.29 0.29 93 1006.8
20260505210556 51 330 0.0 2.0 0.08 0.28 0.28 92 1006.7
20260505210043 52 330 0.0 1.0 0.07 0.27 0.27 92 1006.6
20260505205549 52 330 0.0 1.0 0.06 0.26 0.26 92 1006.5
20260505205120 52 330 0.0 2.0 0.06 0.25 0.25 92 1006.6
20260505204544 52 330 0.0 4.0 0.06 0.25 0.25 92 1006.6
20260505204052 51 330 1.0 4.0 0.05 0.24 0.24 92 1006.6
20260505203557 51 330 1.0 3.0 0.05 0.23 0.23 92 1006.5
20260505203044 52 330 1.0 5.0 0.05 0.23 0.23 92 1006.5
20260505202550 52 330 3.0 5.0 0.05 0.22 0.22 92 1006.5
20260505202055 52 330 0.0 3.0 0.06 0.21 0.21 92 1006.8
20260505201556 52 330 0.0 2.0 0.07 0.21 0.21 92 1006.8
20260505201109 52 330 0.0 3.0 0.08 0.21 0.21 92 1006.7
20260505200555 52 330 0.0 4.0 0.08 0.20 0.20 92 1006.8
20260505200042 52 330 1.0 4.0 0.09 0.20 0.20 92 1006.9
20260505195547 52 330 0.0 3.0 0.09 0.20 0.20 92 1007.2
20260505195053 53 330 0.0 1.0 0.09 0.19 0.19 92 1007.3
20260505194558 53 330 0.0 3.0 0.09 0.19 0.19 92 1007.2
20260505194045 53 330 1.0 4.0 0.11 0.19 0.19 92 1007.2
20260505193552 53 330 1.0 4.0 0.11 0.18 0.18 92 1007.3
20260505193100 54 329 0.0 2.0 0.11 0.18 0.18 92 1007.3
20260505192546 54 330 0.0 2.0 0.10 0.17 0.17 92 1007.3
20260505192117 54 330 0.0 2.0 0.10 0.16 0.16 92 1007.3
20260505191542 55 330 1.0 2.0 0.08 0.14 0.14 92 1007.2
20260505191048 55 330 1.0 2.0 0.08 0.13 0.13 92 1007.0
20260505190554 55 330 0.0 1.0 0.07 0.12 0.12 91 1006.8
20260505190041 55 330 0.0 2.0 0.07 0.11 0.11 92 1006.7
20260505185541 56 330 1.0 2.0 0.08 0.11 0.11 91 1006.7
20260505185046 56 330 0.0 1.0 0.08 0.10 0.10 91 1006.7
20260505184553 56 330 0.0 2.0 0.09 0.10 0.10 91 1006.7
20260505184059 56 330 0.0 4.0 0.07 0.08 0.08 91 1006.8
20260505183547 56 330 0.0 4.0 0.07 0.07 0.07 90 1006.7
20260505183054 56 330 0.0 3.0 0.07 0.07 0.07 90 1006.6
20260505182559 56 330 0.0 5.0 0.07 0.07 0.07 90 1006.6
20260505182044 56 329 2.0 5.0 0.06 0.06 0.06 90 1006.5
20260505181612 56 329 1.0 3.0 0.06 0.06 0.06 89 1006.3
20260505181102 57 329 0.0 3.0 0.05 0.05 0.05 88 1006.3
20260505180545 57 329 0.0 3.0 0.05 0.05 0.05 87 1006.5
20260505180049 57 330 0.0 1.0 0.04 0.04 0.04 86 1006.4
20260505175555 58 330 1.0 2.0 0.03 0.03 0.03 85 1006.3
20260505175058 58 329 0.0 2.0 0.02 0.02 0.02 85 1006.5
20260505174542 59 330 0.0 1.0 0.02 0.02 0.02 84 1006.2
20260505174048 59 330 0.0 2.0 0.01 0.01 0.01 84 1006.4
20260505173551 60 330 1.0 2.0 0.00 0.00 0.00 82 1006.3
20260505173100 60 330 0.0 3.0 0.00 0.00 0.00 81 1006.3
20260505172544 60 330 0.0 3.0 0.00 0.00 0.00 80 1006.3
20260505172046 60 330 0.0 4.0 0.00 0.00 0.00 79 1006.3
20260505171617 60 330 1.0 4.0 0.00 0.00 0.00 79 1006.3
20260505171100 60 330 1.0 4.0 0.00 0.00 0.00 80 1006.3
20260505170545 60 330 1.0 4.0 0.00 0.00 0.00 80 1006.4
20260505170051 60 330 1.0 3.0 0.00 0.00 0.00 79 1006.5
20260505165557 61 330 1.0 6.0 0.00 0.00 0.00 79 1006.5
20260505165103 61 330 2.0 6.0 0.00 0.00 0.00 78 1006.5
20260505164549 61 240 1.0 4.0 0.00 0.00 0.00 78 1006.5
20260505164117 61 240 1.0 6.0 0.00 0.00 0.00 78 1006.5
20260505163600 61 242 1.0 12.0 0.00 0.00 0.00 78 1006.4
20260505163111 61 242 3.0 12.0 0.00 0.00 0.00 77 1006.4
20260505162618 61 232 2.0 5.0 0.00 0.00 0.00 77 1006.3
20260505162104 61 232 1.0 5.0 0.00 0.00 0.00 77 1006.3
20260505161548 61 224 1.0 2.0 0.00 0.00 0.00 77 1006.5
20260505161058 61 224 1.0 5.0 0.00 0.00 0.00 77 1006.4
20260505160543 61 224 2.0 16.0 0.00 0.00 0.00 76 1006.4
20260505160108 61 224 2.0 16.0 0.00 0.00 0.00 76 1006.3
20260505153100 62 61 2.0 7.0 0.00 0.00 0.00 76 1006.4
20260505152545 62 348 2.0 7.0 0.00 0.00 0.00 76 1006.4
20260505152051 62 179 2.0 7.0 0.00 0.00 0.00 76 1006.3
20260505151556 62 82 1.0 9.0 0.00 0.00 0.00 76 1006.2
20260505151059 62 312 3.0 9.0 0.00 0.00 0.00 75 1006.0
20260505150544 63 310 2.0 5.0 0.00 0.00 0.00 75 1006.0
20260505140551 64 305 3.0 11.0 0.00 0.00 0.00 72 1004.2
20260505124600 61 215 2.0 6.0 0.00 0.00 0.00 75 1004.2
20260505124045 61 283 2.0 6.0 0.00 0.00 0.00 76 1004.3
20260505123554 60 183 1.0 6.0 0.00 0.00 0.00 76 1004.3
20260505123041 61 154 1.0 9.0 0.00 0.00 0.00 76 1004.3
20260505122611 61 205 2.0 9.0 0.00 0.00 0.00 76 1004.0
20260505122055 60 337 1.0 8.0 0.00 0.00 0.00 76 1004.1
20260505121559 60 194 4.0 5.0 0.00 0.00 0.00 75 1004.2
20260505121046 60 290 1.0 6.0 0.00 0.00 0.00 75 1004.3
20260505120611 60 269 2.0 6.0 0.00 0.00 0.00 75 1004.2
20260505120055 60 229 1.0 5.0 0.00 0.00 0.00 76 1004.0
20260505115559 60 264 1.0 4.0 0.00 0.00 0.00 76 1003.9
20260505115054 60 70 1.0 4.0 0.00 0.00 0.00 76 1003.8
20260505114600 60 274 0.0 9.0 0.00 0.00 0.00 76 1003.8
20260505114100 60 237 3.0 9.0 0.00 0.00 0.00 76 1003.4
20260505113544 59 270 2.0 5.0 0.00 0.00 0.00 77 1003.3
20260505113049 60 243 1.0 7.0 0.00 0.00 0.00 77 1003.1
20260505112553 59 232 1.0 7.0 0.00 0.00 0.00 77 1003.0
20260505112058 60 240 2.0 6.0 0.00 0.00 0.00 77 1002.9
20260505111543 59 182 1.0 6.0 0.00 0.00 0.00 77 1002.7
20260505111049 59 5 0.0 4.0 0.00 0.00 0.00 78 1002.8
20260505110555 59 207 0.0 5.0 0.00 0.00 0.00 78 1002.7
20260505102043 60 263 1.0 7.0 0.00 0.00 0.00 76 1002.0
20260505101547 60 232 4.0 7.0 0.00 0.00 0.00 76 1002.2
20260505101117 60 209 2.0 7.0 0.00 0.00 0.00 76 1002.2
20260505100540 60 182 2.0 12.0 0.00 0.00 0.00 75 1002.1
20260505100046 60 250 3.0 12.0 0.00 0.00 0.00 75 1002.2
20260505095552 60 178 2.0 9.0 0.00 0.00 0.00 76 1002.2
20260505095052 60 218 2.0 12.0 0.00 0.00 0.00 76 1002.2
20260505094617 60 325 4.0 12.0 0.00 0.00 0.00 76 1002.2
20260505094040 60 304 3.0 11.0 0.00 0.00 0.00 76 1002.2
20260505093545 60 169 2.0 11.0 0.00 0.00 0.00 76 1002.2
20260505093050 61 288 3.0 10.0 0.00 0.00 0.00 75 1002.1
20260505092546 61 184 2.0 10.0 0.00 0.00 0.00 74 1002.2
20260505092050 61 347 2.0 5.0 0.00 0.00 0.00 74 1002.1
20260505091620 61 226 1.0 7.0 0.00 0.00 0.00 74 1001.8
20260505091044 62 281 2.0 7.0 0.00 0.00 0.00 73 1001.7
20260505090548 62 208 2.0 6.0 0.00 0.00 0.00 73 1001.6
20260505090054 62 211 2.0 7.0 0.00 0.00 0.00 72 1001.7
20260505085546 62 242 2.0 11.0 0.00 0.00 0.00 72 1001.7
20260505085052 63 338 2.0 11.0 0.00 0.00 0.00 71 1001.6
20260505084540 63 199 2.0 18.0 0.00 0.00 0.00 70 1001.6
20260505084046 63 304 3.0 18.0 0.00 0.00 0.00 70 1001.6
20260505083552 64 186 4.0 15.0 0.00 0.00 0.00 69 1001.6
20260505083055 64 205 3.0 12.0 0.00 0.00 0.00 69 1001.6
20260505082542 64 290 3.0 12.0 0.00 0.00 0.00 69 1001.4
20260505082047 64 292 2.0 12.0 0.00 0.00 0.00 69 1001.4
20260505081553 64 297 2.0 8.0 0.00 0.00 0.00 69 1001.4
20260505081058 64 228 1.0 8.0 0.00 0.00 0.00 70 1001.2
20260505080543 63 213 1.0 9.0 0.00 0.00 0.00 71 1001.1
20260505080047 63 235 4.0 9.0 0.00 0.00 0.00 71 1001.1
20260505075552 63 234 3.0 7.0 0.00 0.00 0.00 72 1001.2
20260505075058 63 236 2.0 6.0 0.00 0.00 0.00 72 1001.1
20260505074545 63 244 1.0 6.0 0.00 0.00 0.00 72 1000.9
20260505074057 63 202 1.0 8.0 0.00 0.00 0.00 71 1000.8
20260505073544 63 245 2.0 8.0 0.00 0.00 0.00 71 1000.8
20260505073051 63 207 1.0 3.0 0.00 0.00 0.00 71 1000.8
20260505072558 64 207 2.0 7.0 0.00 0.00 0.00 70 1000.9
20260505072045 64 207 2.0 10.0 0.00 0.00 0.00 70 1001.0
20260505071554 64 207 2.0 10.0 0.00 0.00 0.00 70 1001.0
20260505071039 64 219 1.0 5.0 0.00 0.00 0.00 70 1000.9
20260505070557 65 219 1.0 5.0 0.00 0.00 0.00 69 1001.1
20260505070104 65 219 1.0 3.0 0.00 0.00 0.00 69 1001.1
20260505065543 65 219 0.0 2.0 0.00 0.00 0.00 69 1001.2
20260505065048 65 219 0.0 0.0 0.00 0.00 0.00 69 1001.3
20260505064546 65 219 0.0 0.0 0.00 0.00 0.00 68 1001.4
20260505064055 66 219 0.0 2.0 0.00 0.00 0.00 68 1001.3
20260505063541 66 219 0.0 2.0 0.00 0.00 0.00 67 1001.4
20260505063050 66 219 0.0 4.0 0.00 0.00 0.00 66 1001.4
20260505062556 66 219 1.0 4.0 0.00 0.00 0.00 66 1001.4
20260505062102 67 219 1.0 4.0 0.00 0.00 0.00 65 1001.5
20260505061547 67 227 1.0 4.0 0.00 0.00 0.00 65 1001.5
20260505061054 67 227 1.0 4.0 0.00 0.00 0.00 65 1001.7
20260505060559 67 227 1.0 7.0 0.00 0.00 0.00 65 1001.7
20260505060040 67 271 1.0 7.0 0.00 0.00 0.00 64 1001.5
20260505055542 67 215 1.0 4.0 0.00 0.00 0.00 65 1001.6
20260505055046 67 215 2.0 9.0 0.00 0.00 0.00 64 1001.4
20260505054617 67 175 3.0 9.0 0.00 0.00 0.00 65 1001.0
20260505054041 67 61 1.0 9.0 0.00 0.00 0.00 65 1001.0
20260505053550 67 213 3.0 9.0 0.00 0.00 0.00 65 1000.8
20260505053054 67 194 4.0 9.0 0.00 0.00 0.00 65 1000.8
20260505052540 67 304 3.0 10.0 0.00 0.00 0.00 65 1000.8
20260505052048 67 187 1.0 10.0 0.00 0.00 0.00 65 1000.6
20260505051620 67 182 2.0 10.0 0.00 0.00 0.00 65 1000.7
20260505051045 67 170 1.0 7.0 0.00 0.00 0.00 65 1000.7
20260505050553 67 190 3.0 9.0 0.00 0.00 0.00 65 1000.7
20260505041541 67 173 3.0 12.0 0.00 0.00 0.00 65 1001.0
20260505041046 67 123 4.0 13.0 0.00 0.00 0.00 65 1001.1
20260505040552 67 192 4.0 13.0 0.00 0.00 0.00 65 1001.2
20260505040042 67 190 4.0 10.0 0.00 0.00 0.00 65 1001.1
20260505035542 67 136 4.0 12.0 0.00 0.00 0.00 65 1001.2
20260505035048 67 173 4.0 8.0 0.00 0.00 0.00 65 1001.3
20260505034553 67 170 3.0 12.0 0.00 0.00 0.00 65 1001.3
20260505034039 67 193 4.0 12.0 0.00 0.00 0.00 64 1001.4
20260505033546 67 184 5.0 7.0 0.00 0.00 0.00 65 1001.4
20260505033050 67 168 3.0 8.0 0.00 0.00 0.00 64 1001.4
20260505032559 67 157 3.0 8.0 0.00 0.00 0.00 64 1001.5
20260505032103 67 175 4.0 8.0 0.00 0.00 0.00 64 1001.6
20260505031548 67 172 3.0 7.0 0.00 0.00 0.00 65 1001.7
20260505031054 67 195 2.0 7.0 0.00 0.00 0.00 64 1001.8
20260505030539 67 161 2.0 7.0 0.00 0.00 0.00 64 1001.7
20260505030110 67 236 2.0 7.0 0.00 0.00 0.00 64 1001.7
20260505025619 67 180 2.0 7.0 0.00 0.00 0.00 64 1001.6
20260505025043 67 169 3.0 9.0 0.00 0.00 0.00 64 1001.7
20260505024552 67 171 3.0 9.0 0.00 0.00 0.00 63 1001.7
20260505024056 67 163 2.0 5.0 0.00 0.00 0.00 63 1001.7
20260505023540 67 171 1.0 6.0 0.00 0.00 0.00 63 1001.7
20260505023049 67 198 3.0 6.0 0.00 0.00 0.00 62 1001.7
20260505022554 68 186 3.0 9.0 0.00 0.00 0.00 62 1001.6
20260505022041 68 180 2.0 9.0 0.00 0.00 0.00 62 1001.6
20260505021544 68 128 1.0 9.0 0.00 0.00 0.00 61 1001.6
20260505021116 68 173 4.0 9.0 0.00 0.00 0.00 61 1001.6
20260505020559 68 169 4.0 9.0 0.00 0.00 0.00 60 1001.6
20260505020045 69 188 3.0 9.0 0.00 0.00 0.00 60 1001.7
20260505015550 69 183 4.0 9.0 0.00 0.00 0.00 59 1001.7
20260505015058 69 201 3.0 7.0 0.00 0.00 0.00 59 1001.6
20260505014542 69 169 3.0 7.0 0.00 0.00 0.00 58 1001.6
20260505014113 70 175 2.0 11.0 0.00 0.00 0.00 57 1001.7
20260505013557 70 263 3.0 11.0 0.00 0.00 0.00 56 1001.6
20260505013047 70 327 3.0 13.0 0.00 0.00 0.00 55 1001.6
20260505012551 70 203 2.0 13.0 0.00 0.00 0.00 54 1001.5
20260505012057 70 182 2.0 5.0 0.00 0.00 0.00 54 1001.5
20260505011541 71 313 1.0 6.0 0.00 0.00 0.00 53 1001.3
20260505011046 71 193 3.0 6.0 0.00 0.00 0.00 53 1001.2
20260505010551 71 285 2.0 8.0 0.00 0.00 0.00 53 1001.1
20260505010052 71 234 2.0 9.0 0.00 0.00 0.00 53 1000.9
20260505005557 71 171 1.0 5.0 0.00 0.00 0.00 53 1001.0
20260505005043 71 234 2.0 6.0 0.00 0.00 0.00 53 1001.0
20260505004549 71 198 0.0 7.0 0.00 0.00 0.00 53 1001.0
20260505004055 71 215 3.0 7.0 0.00 0.00 0.00 53 1000.9
20260505003559 71 239 2.0 4.0 0.00 0.00 0.00 52 1000.9
20260505003044 72 183 0.0 10.0 0.00 0.00 0.00 52 1000.8
20260505002549 72 171 2.0 14.0 0.00 0.00 0.00 50 1000.7
20260505002120 73 262 1.0 14.0 0.00 0.00 0.00 49 1000.7